C/2014 OE4 ( PanSTARRS )

Japanese version
Home page
Updated on January 17, 2017

---------------------------------------------------------------------

* Profile

Discovery Date July 26, 2014
Magnitude 20.7 mag
Discoverer Pan-STARRS 1 telescope (Haleakala)

* Pictures

* Orbital Elements

Epoch 2016 Nov. 28.0 TT = JDT 2457720.5
T 2016 Dec. 10.74537 TT                                 MPCW
q   6.2443335            (2000.0)            P               Q
z  +0.0000872      Peri.   65.74289     -0.08368647     +0.50406346
 +/-0.0000003      Node   240.40004     -0.74841974     +0.53774876
e   0.9994554      Incl.   81.34886     +0.65792436     +0.67583009
From 740 observations 2014 May 8-2016 Oct. 29, mean residual 0".5.

* Magnitudes Graph

        m1 = -5.8 + 5 log d + 23.0 log r

---------------------------------------------------------------------

The orbital elements are published on M.P.E.C. 2016-V116.
The magnitudes graphs are made with Comet for Windows.

---------------------------------------------------------------------

Copyright(C) Seiichi Yoshida (comet@aerith.net). All rights reserved.